TimeCST,TemperatureF,Dew PointF,Humidity,Sea Level PressureIn,VisibilityMPH,Wind Direction,Wind SpeedMPH,Gust SpeedMPH,PrecipitationIn,Events,Conditions,WindDirDegrees,DateUTC
12:53 AM,30.9,21.9,69,30.04,7.0,NNW,10.4,-,0.00,,Overcast,330,2014-01-02 06:53:00
1:10 AM,30.2,21.2,69,30.05,5.0,NNW,12.7,18.4,0.00,Snow,Light Snow,330,2014-01-02 07:10:00
1:53 AM,28.0,21.0,75,30.09,7.0,NW,10.4,18.4,0.00,,Overcast,320,2014-01-02 07:53:00
2:53 AM,25.0,17.1,72,30.12,5.0,NNW,12.7,21.9,0.00,Snow,Light Snow,340,2014-01-02 08:53:00
3:11 AM,24.8,17.6,74,30.11,2.5,NNW,8.1,19.6,0.00,Snow,Light Snow,330,2014-01-02 09:11:00
3:19 AM,23.0,17.6,80,30.12,3.0,NW,13.8,26.5,0.00,Snow,Light Snow,310,2014-01-02 09:19:00
3:29 AM,21.2,15.8,80,30.12,2.5,NNW,10.4,23.0,0.00,Snow,Light Snow,330,2014-01-02 09:29:00
3:41 AM,21.2,15.8,80,30.13,4.0,NW,13.8,23.0,0.00,Snow,Light Snow,320,2014-01-02 09:41:00
3:53 AM,19.9,14.0,78,30.16,4.0,NW,10.4,19.6,0.00,Snow,Light Snow,320,2014-01-02 09:53:00
4:53 AM,18.0,10.9,74,30.20,9.0,NW,11.5,24.2,0.00,,Scattered Clouds,320,2014-01-02 10:53:00
5:23 AM,17.6,10.4,73,30.20,9.0,NW,11.5,23.0,N/A,,Mostly Cloudy,320,2014-01-02 11:23:00
5:37 AM,17.6,8.6,68,30.21,10.0,NW,9.2,20.7,N/A,,Scattered Clouds,320,2014-01-02 11:37:00
5:53 AM,16.0,10.0,77,30.24,10.0,NW,9.2,19.6,N/A,,Partly Cloudy,320,2014-01-02 11:53:00
6:53 AM,16.0,9.0,74,30.26,10.0,NNW,8.1,-,N/A,,Partly Cloudy,330,2014-01-02 12:53:00
7:29 AM,15.8,8.6,73,30.26,9.0,NW,9.2,17.3,N/A,,Mostly Cloudy,310,2014-01-02 13:29:00
7:53 AM,16.0,9.0,74,30.29,8.0,NW,4.6,-,N/A,,Mostly Cloudy,320,2014-01-02 13:53:00
8:04 AM,15.8,8.6,73,30.27,8.0,NNW,9.2,18.4,N/A,,Scattered Clouds,330,2014-01-02 14:04:00
8:53 AM,18.0,10.0,71,30.32,8.0,Variable,6.9,-,N/A,,Scattered Clouds,0,2014-01-02 14:53:00
9:31 AM,19.4,10.4,68,30.31,8.0,NW,9.2,-,N/A,,Mostly Cloudy,310,2014-01-02 15:31:00
9:53 AM,19.0,10.9,71,30.35,8.0,NNW,9.2,18.4,N/A,,Mostly Cloudy,340,2014-01-02 15:53:00
10:53 AM,21.0,10.9,65,30.36,9.0,NW,5.8,19.6,N/A,,Partly Cloudy,320,2014-01-02 16:53:00
11:53 AM,25.0,10.0,53,30.35,10.0,NNW,9.2,-,N/A,,Clear,330,2014-01-02 17:53:00
12:53 PM,26.1,10.0,51,30.34,10.0,NNW,10.4,19.6,N/A,,Clear,340,2014-01-02 18:53:00
1:53 PM,27.0,9.0,47,30.33,10.0,NW,11.5,19.6,N/A,,Partly Cloudy,320,2014-01-02 19:53:00
2:53 PM,28.0,9.0,45,30.35,10.0,NNW,10.4,18.4,N/A,,Clear,330,2014-01-02 20:53:00
3:53 PM,27.0,9.0,47,30.37,10.0,NW,8.1,-,N/A,,Clear,310,2014-01-02 21:53:00
4:53 PM,24.1,8.1,51,30.40,10.0,NNW,5.8,-,N/A,,Clear,330,2014-01-02 22:53:00
5:53 PM,21.9,8.1,55,30.41,10.0,NNW,4.6,-,N/A,,Clear,330,2014-01-02 23:53:00
6:53 PM,19.9,8.1,60,30.43,10.0,Variable,5.8,-,N/A,,Clear,0,2014-01-03 00:53:00
7:53 PM,18.0,6.1,60,30.45,10.0,NNW,4.6,-,N/A,,Clear,340,2014-01-03 01:53:00
8:53 PM,17.1,3.9,56,30.47,10.0,North,3.5,-,N/A,,Clear,350,2014-01-03 02:53:00
9:53 PM,16.0,5.0,62,30.48,10.0,Calm,Calm,-,N/A,,Clear,0,2014-01-03 03:53:00
10:53 PM,15.1,3.9,61,30.50,10.0,Calm,Calm,-,N/A,,Clear,0,2014-01-03 04:53:00
11:53 PM,14.0,3.0,62,30.50,10.0,Calm,Calm,-,N/A,,Clear,0,2014-01-03 05:53:00